Regional Weather Roundup
Issued by NWS

Home | Current Version | Previous Version | Text Only | Print | Product List | Glossary On
Versions: 1 2 3 4 5 6 7 8 9 10 11 12 13 14 15 16 17 18 19 20 21 22 23 24 25 26 27 28 29 30 31 32 33 34 35 36 37 38 39 40 41 42 43 44 45 46 47 48 49 50
000
ASUS44 KJAN 311210
RWRMS

MISSISSIPPI HOURLY WEATHER ROUNDUP
NATIONAL WEATHER SERVICE JACKSON MS
700 AM CDT TUE MAR 31 2015

NOTE: "FAIR: INDICATES FEW OR NO CLOUDS BELOW 12,000 FEET WITH NO
SIGNIFICANT WEATHER AND/OR OBSTRUCTIONS TO VISIBILITY.

MSZ001>002-007>008-010>013-018>021-025>028-034>036-311300-
NORTHWEST MISSISSIPPI

CITY           SKY/WX    TMP DP  RH WIND       PRES   REMARKS
CLARKSDALE       N/A     57  54  88 S5        30.03S
CLEVELAND      CLOUDY    60  58  95 S5        30.02S
GREENWOOD      CLOUDY    63  58  83 SW8       30.04R
6HR MIN TEMP:  54; 6HR MAX TEMP:  63;

GREENVILLE     NOT AVBL
OLIVE BRANCH   MOCLDY    54  52  94 S9        30.02R
OXFORD         FAIR      54  45  71 CALM      30.05S
TUNICA         PTSUNNY   55  52  88 S8        30.03S
$$

MSZ003>006-009-014>017-022>024-029>033-037>039-311300-
NORTHEAST MISSISSIPPI

CITY           SKY/WX    TMP DP  RH WIND       PRES   REMARKS
COLUMBUS AFB   PTCLDY    50  49  96 SE5       30.05R
6HR MIN TEMP:  48; 6HR MAX TEMP:  52; 6HR PCP: TRACE;

CORINTH        FAIR      48  45  87 CALM      30.02S
GOLDN TRIANGLE MOCLDY    55  52  88 S5        30.04S
STARKVILLE     CLOUDY    52  50  93 CALM      30.05S
TUPELO         MOCLDY    52  48  86 CALM      30.04R
6HR MIN TEMP:  49; 6HR MAX TEMP:  52;

$$

MSZ040-058-311300-
CENTRAL MISSISSIPPI

CITY           SKY/WX    TMP DP  RH WIND       PRES   REMARKS
JACKSON INTL   CLEAR     57  55  93 S5        30.08R
6HR MIN TEMP:  57; 6HR MAX TEMP:  63;

JACKSON HAWKNS CLEAR     60  57  89 CALM      30.08R
6HR MIN TEMP:  60; 6HR MAX TEMP:  64;

MERIDIAN KEY   CLEAR     52  52 100 S5        30.08R
6HR MIN TEMP:  52; 6HR MAX TEMP:  57;

MERIDIAN NAS   PTCLDY    56  53  90 CALM      30.07
RAYMOND        FAIR      59  54  82 MISG      30.08R
VICKSBURG      PTCLDY    59  57  93 S3        30.08R
6HR MIN TEMP:  59; 6HR MAX TEMP:  66;

$$

MSZ059>079-311300-
SOUTH MISSISSIPPI

CITY           SKY/WX    TMP DP  RH WIND       PRES   REMARKS
BROOKHAVEN     CLOUDY    61  61 100 SW6       30.11R
HATTIESBURG    CLEAR     61  59  93 SW3       30.10R
6HR MIN TEMP:  61; 6HR MAX TEMP:  68;

MCCOMB         FOG       61  61 100 W3        30.11R VSB 3/4
6HR MIN TEMP:  55; 6HR MAX TEMP:  64;

NATCHEZ        CLOUDY    63  59  88 SW7       30.09R
6HR MIN TEMP:  59; 6HR MAX TEMP:  66;

PINE BELT      CLEAR     54  50  87 SW3       30.10S
6HR MIN TEMP:  54; 6HR MAX TEMP:  61;

$$

MSZ080>082-311300-
COASTAL MISSISSIPPI

CITY           SKY/WX    TMP DP  RH WIND       PRES   REMARKS
BILOXI         CLEAR     64  63  96 W3        30.10R
6HR MIN TEMP:  64; 6HR MAX TEMP:  69;

PASCAGOULA     FOG       58  57  97 CALM      30.11R VSB 1/4
6HR MIN TEMP:  57; 6HR MAX TEMP:  67;

GULFPORT       CLEAR     60  58  92 CALM      30.10R
6HR MIN TEMP:  60; 6HR MAX TEMP:  68;

$$


USA.gov is the U.S. government's official web portal to all federal, state and local government web resources and services.